Vertical_Velocity
5 2 1 -6 -0 9 10 3 2 -3 -1 10 -11 -7 -4 12 1 -1 -5 -2 1 -7 4 6 -7 -6 -7 1 2 -8 -1 1 -5 -8 4 -2 -3 0 1 3 -3 -7 4 -35
2 3 2 3 -3 2 3 -2 2 2 10 7 -5 5 -4 -0 9 6 1 -2 -5 12 -5 5 -2 -6 6 3 -7 -13 -9 1 2 -2 6 -1 -6 2 0 4 12 -11 4 -8
-1 -5 -2 5 4 -1 1 5 1 4 7 5 2 7 13 12 6 7 8 -1 5 15 -2 4 -22 -1 10 5 7 6 9 3 -12 -17 12 3 -4 -3 -1 7 14 -16 -22 -26
-7 0 -4 1 5 3 3 0 3 -2 4 10 9 9 9 7 11 14 5 8 11 3 3 5 -0 14 3 3 3 9 2 -1 10 4 -2 7 -4 3 5 3 -4 11 -10 -4
4 -6 -5 -4 -1 11 4 -1 -0 -3 5 2 3 5 -5 3 1 5 2 11 11 11 10 12 3 8 10 1 7 17 7 -2 -0 -5 -0 -3 -11 2 2 4 -0 -2 -8 -35
1 -1 1 3 1 3 5 4 -1 5 -8 -3 7 -2 3 1 3 -1 -4 -3 1 -1 -2 3 3 7 5 5 6 3 11 4 3 -11 0 8 6 -12 -9 -4 13 -10 -6 -12
2 2 3 -3 4 -2 1 2 4 7 -7 1 1 -2 -2 3 2 8 2 1 4 4 -3 -2 -5 -7 -3 2 -0 5 2 2 6 -9 9 6 -18 -9 7 -6 -6 -1 6 -9
-2 3 4 4 9 -2 -3 2 7 9 5 2 3 0 2 -1 0 -1 -5 1 4 7 10 -2 -2 -8 3 -15 -15 -2 1 6 3 -1 1 -13 -3 -4 -8 2 -15 11 -9 -1
2 2 5 -4 7 2 0 -1 2 5 3 -8 -1 -4 2 0 0 -2 -4 -2 -6 4 1 -1 5 -3 -2 5 -2 1 10 3 14 12 3 -1 -8 -5 2 10 -24 -19 5 -6
2 1 6 4 1 -1 8 1 3 5 4 -3 -1 -2 -5 -3 -4 -3 -3 -1 -3 2 2 8 1 1 0 -3 -7 -3 2 7 -4 -3 4 -9 -26 5 7 12 -36 -8 -3 -1
4 4 7 -1 -0 6 17 8 9 8 6 -3 -0 4 -5 3 2 -2 4 -7 -7 4 5 6 -0 7 -3 1 -14 -0 1 -5 -6 2 8 -2 -18 6 -6 13 3 -0 -1 -2
0 8 -3 -2 3 17 8 11 14 6 -2 -4 -4 -5 -3 -2 1 -6 -1 5 3 -3 16 -2 10 -6 5 -1 2 7 11 -23 -7 -11 0 -13 -3 8 0 -2 5 -0 -1 -2
-2 6 -9 3 10 14 13 5 4 -1 -9 -10 -11 11 5 -2 3 5 -8 -10 3 -3 7 9 6 -8 18 21 -7 10 7 6 6 17 -31 -6 17 -8 -10 -4 -1 -5 0 3
-4 -1 3 16 21 8 4 -1 8 -6 1 -12 -18 7 2 4 3 7 -3 -9 4 3 8 12 13 5 -1 -10 2 8 5 10 -5 -16 -14 10 -6 5 2 -10 -2 -2 2 2
3 -1 1 2 8 15 6 1 2 3 4 -13 -11 -9 11 1 -2 0 -4 -9 1 1 1 1 -4 -3 17 -12 8 -32 13 -7 -13 -33 17 1 -2 -4 1 -6 -1 6 -2 2
-1 3 -1 12 9 12 18 1 -3 7 6 -3 -13 -14 -7 -1 2 3 2 2 -1 4 13 1 5 1 15 1 -10 -42 18 16 5 -23 8 3 3 -2 -1 -2 -3 -1 2 0
-2 -0 6 5 11 13 2 -5 -5 4 9 4 -4 -15 -10 6 -5 -1 1 0 -1 1 11 4 -1 3 17 18 3 -3 -2 1 9 1 3 -7 6 -2 5 -0 -2 1 1 -1
-1 -1 5 6 5 13 4 -0 7 4 0 2 -5 -12 -8 2 -5 -4 5 4 1 -8 -1 -7 -1 4 8 -18 3 -10 4 2 5 7 -4 -6 3 -2 4 2 -1 -0 1 1
1 4 4 8 3 -3 -2 8 1 8 8 -1 -7 -1 -1 -5 4 8 4 0 -3 -1 -3 -3 15 -4 -13 -12 0 1 3 2 -0 -2 -2 -1 -2 1 2 1 1 -1 0 0
5 9 5 -4 -7 9 5 2 2 -0 -5 -6 -23 4 -3 15 2 -7 4 -3 -1 0 -5 10 7 -25 -5 -1 -0 4 5 3 1 0 4 4 5 -0 -2 2 4 2 2 -0
9 7 -4 -0 3 2 4 7 6 7 -3 -12 -10 -4 10 7 1 10 9 -3 0 -0 -7 5 -2 -12 -8 1 -0 0 1 3 2 1 1 0 2 2 2 1 2 2 0 0
3 4 9 7 5 2 5 11 3 -4 -5 -6 -10 -4 5 -5 7 12 -2 -2 2 2 4 3 -6 -13 -1 1 0 -1 -1 -1 0 -1 3 3 4 2 1 -3 1 1 1 0
7 9 6 14 4 9 0 -3 -2 -4 -4 -5 -4 -3 2 5 11 9 1 5 3 5 1 -3 -12 -0 1 0 -0 -1 -3 0 1 5 2 1 -3 0 -1 -0 1 2 2 2
14 11 4 -5 1 6 -4 -5 -3 -3 -1 4 2 2 2 -0 8 5 1 5 0 2 0 -1 0 -0 -1 -1 -1 -0 1 2 1 0 -0 -1 0 -0 1 1 2 1 1 1
2 -2 -0 -1 -2 1 1 1 4 2 1 3 5 5 9 4 4 -0 2 1 1 1 1 1 0 0 0 0 0 0 1 1 0 -0 0 0 0 1 2 1 0 0 1 1
6 4 3 -1 2 2 3 2 2 4 6 6 4 2 2 1 1 2 2 1 0 -2 -1 -1 -1 -1 -1 -1 -0 0 1 1 0 -0 -0 -0 1 0 0 0 1 0 -1 -1
1 0 2 1 3 2 2 2 2 2 2 2 3 2 0 1 2 -1 0 -0 -1 -2 -1 -1 -1 -0 -0 -0 1 0 -0 -1 -1 -0 -1 -1 -0 0 -1 -1 8 -2 -2 -3
Height
3047 3048 3049 3053 3057 3060 3063 3067 3068 3069 3076 3078 3073 3067 3075 3078 3076 3080 3084 3086 3086 3089 3093 3090 3089 3088 3091 3088 3088 3090 3092 3092 3089 3085 3083 3084 3083 3084 3084 3088 3088 3086 3085 3064
3040 3041 3044 3045 3047 3049 3051 3053 3057 3059 3061 3059 3058 3063 3065 3066 3067 3067 3070 3070 3072 3078 3077 3082 3077 3075 3083 3080 3077 3079 3080 3080 3081 3077 3079 3075 3072 3071 3074 3076 3080 3071 3077 3058
3035 3035 3038 3041 3041 3040 3043 3045 3047 3049 3050 3049 3050 3052 3052 3054 3055 3057 3057 3057 3061 3062 3059 3064 3061 3064 3068 3066 3065 3067 3068 3066 3061 3057 3062 3063 3063 3062 3064 3066 3064 3063 3053 3053
3030 3031 3034 3035 3037 3036 3037 3037 3036 3038 3039 3043 3043 3043 3041 3042 3045 3044 3044 3046 3048 3047 3048 3048 3048 3050 3048 3051 3050 3054 3053 3048 3048 3048 3052 3056 3055 3057 3058 3055 3056 3056 3048 3050
3024 3025 3027 3029 3032 3032 3031 3032 3033 3033 3034 3034 3035 3035 3035 3036 3036 3036 3037 3038 3039 3039 3039 3039 3038 3039 3039 3040 3041 3042 3042 3041 3042 3040 3043 3047 3047 3046 3048 3047 3046 3045 3048 3034
3018 3019 3020 3023 3023 3026 3024 3025 3027 3028 3026 3027 3028 3028 3028 3030 3031 3030 3030 3033 3033 3032 3034 3034 3034 3035 3034 3034 3036 3036 3038 3037 3037 3033 3039 3040 3034 3030 3030 3032 3037 3039 3036 3031
3010 3013 3014 3016 3016 3019 3019 3022 3021 3022 3019 3023 3023 3023 3024 3024 3027 3026 3024 3025 3027 3028 3026 3026 3026 3027 3028 3029 3029 3030 3030 3031 3033 3028 3033 3027 3020 3024 3024 3024 3027 3028 3025 3027
3002 3005 3006 3009 3009 3011 3013 3015 3015 3016 3014 3017 3017 3019 3018 3019 3019 3020 3018 3020 3022 3023 3021 3021 3021 3019 3018 3014 3019 3021 3022 3024 3025 3023 3020 3015 3015 3015 3017 3017 3017 3020 3019 3019
2994 2996 2998 3001 3002 3005 3005 3006 3007 3008 3009 3008 3012 3011 3014 3013 3014 3015 3012 3013 3014 3016 3016 3016 3012 3012 3010 3009 3009 3009 3011 3013 3015 3014 3009 3007 3008 3010 3010 3011 3005 3012 3010 3009
2985 2988 2990 2992 2995 2998 2998 2998 2999 3000 3002 3002 3005 3006 3008 3008 3009 3010 3008 3010 3009 3008 3007 3008 3007 3005 3003 3000 3003 3003 3005 3005 3003 3004 3000 2996 3000 3005 3006 3007 3005 3001 3003 3004
2977 2979 2981 2984 2987 2990 2990 2990 2992 2993 2994 2995 2998 2999 3002 3003 3005 3004 3005 3005 3006 3003 3002 3000 3000 2998 2994 2994 2995 2996 2997 2998 2998 3000 2996 2989 2994 2997 2998 2998 2996 2997 2997 2998
2969 2970 2974 2977 2980 2981 2983 2985 2985 2984 2987 2991 2993 2994 2994 2997 2997 2998 2997 2998 2999 3000 2995 2995 2992 2993 2989 2986 2985 2990 2988 2988 2990 2990 2985 2987 2987 2988 2989 2989 2989 2990 2991 2993
2963 2964 2967 2970 2972 2973 2975 2978 2977 2978 2980 2984 2985 2988 2987 2988 2990 2991 2989 2988 2994 2990 2990 2988 2986 2987 2982 2979 2977 2980 2980 2981 2979 2977 2979 2980 2981 2981 2983 2985 2986 2983 2985 2986
2956 2959 2962 2964 2964 2968 2968 2972 2973 2974 2977 2977 2979 2980 2978 2980 2981 2981 2980 2981 2984 2982 2981 2980 2978 2978 2979 2976 2974 2972 2974 2972 2971 2969 2969 2970 2972 2974 2975 2976 2976 2976 2977 2978
2950 2954 2957 2958 2961 2962 2964 2967 2970 2970 2973 2973 2972 2972 2974 2972 2973 2973 2971 2970 2972 2974 2971 2970 2970 2970 2970 2967 2965 2962 2963 2962 2962 2959 2962 2962 2964 2966 2964 2966 2966 2968 2968 2968
2945 2948 2951 2954 2957 2958 2960 2962 2965 2966 2968 2966 2966 2964 2963 2965 2964 2965 2964 2963 2962 2963 2962 2961 2960 2963 2963 2958 2951 2951 2951 2951 2951 2951 2956 2957 2956 2956 2957 2957 2958 2960 2960 2961
2940 2943 2946 2949 2952 2953 2955 2958 2961 2961 2962 2961 2959 2955 2956 2955 2954 2953 2955 2957 2954 2955 2955 2955 2953 2955 2955 2948 2944 2945 2945 2945 2944 2944 2947 2948 2950 2948 2948 2949 2951 2951 2952 2954
2935 2938 2941 2945 2947 2949 2950 2953 2954 2955 2956 2957 2955 2951 2950 2948 2948 2948 2947 2946 2946 2947 2948 2948 2946 2946 2945 2940 2940 2939 2939 2938 2937 2936 2939 2942 2942 2941 2941 2941 2942 2944 2945 2946
2931 2935 2938 2939 2941 2943 2946 2949 2949 2950 2953 2949 2947 2944 2944 2941 2941 2941 2940 2941 2941 2942 2939 2939 2940 2937 2935 2933 2933 2932 2931 2930 2930 2931 2933 2933 2933 2932 2931 2932 2934 2935 2937 2937
2928 2930 2932 2933 2935 2939 2942 2944 2944 2942 2941 2940 2937 2939 2939 2940 2937 2937 2940 2937 2937 2933 2932 2930 2927 2925 2927 2927 2925 2924 2924 2923 2923 2923 2924 2923 2922 2923 2924 2926 2926 2927 2928 2929
2921 2923 2926 2929 2933 2935 2937 2937 2936 2934 2932 2929 2929 2930 2931 2932 2934 2933 2935 2933 2931 2927 2926 2925 2920 2918 2917 2918 2917 2916 2915 2915 2914 2914 2914 2914 2914 2916 2917 2918 2919 2920 2921 2922
2915 2921 2924 2928 2930 2930 2931 2927 2926 2925 2925 2921 2921 2922 2924 2923 2925 2927 2927 2925 2924 2919 2917 2916 2911 2909 2909 2909 2908 2908 2908 2907 2907 2906 2906 2907 2907 2908 2909 2911 2912 2913 2913 2914
2915 2920 2923 2923 2923 2921 2919 2917 2916 2916 2915 2915 2916 2917 2918 2918 2920 2920 2919 2916 2914 2911 2909 2906 2903 2903 2903 2903 2903 2902 2901 2900 2900 2900 2900 2900 2901 2901 2902 2903 2904 2905 2906 2906
2914 2916 2917 2918 2914 2911 2909 2910 2911 2912 2911 2912 2912 2912 2913 2912 2912 2911 2910 2908 2907 2904 2901 2898 2897 2897 2897 2897 2896 2896 2896 2896 2895 2895 2895 2895 2895 2896 2896 2897 2898 2898 2899 2899
2912 2913 2911 2907 2906 2906 2906 2906 2906 2906 2906 2907 2907 2906 2907 2906 2906 2905 2904 2902 2899 2897 2894 2894 2894 2894 2893 2893 2892 2892 2892 2891 2891 2890 2890 2890 2890 2890 2890 2890 2891 2892 2892 2892
2907 2905 2902 2901 2901 2901 2901 2901 2901 2901 2900 2900 2901 2901 2901 2901 2901 2899 2897 2896 2894 2892 2892 2892 2891 2891 2890 2890 2889 2888 2888 2887 2887 2886 2886 2885 2885 2885 2884 2884 2885 2885 2885 2885
2900 2897 2897 2896 2896 2896 2895 2894 2894 2895 2895 2896 2897 2897 2897 2896 2894 2894 2892 2891 2891 2890 2890 2889 2889 2888 2887 2886 2885 2884 2883 2882 2882 2881 2880 2879 2878 2877 2876 2876 2878 2876 2875 2874